OK6FS-6 Weather Reports


time (UTC)temp
C
wind
direction
speed
KPH
gust
KPH
rain 1hr
cm
rain 24hr
cm
rain mn
cm
humidity
%
barometer
mb
20260503053033 12 44 1.6 3.2 0.00 0.00 0.00 59 1021.9
20260503051821 11 16 0.0 3.2 0.00 0.00 0.00 62 1022.0
20260503050656 10 12 0.0 1.6 0.00 0.00 0.00 67 1022.0
20260503045423 9 15 0.0 1.6 0.00 0.00 0.00 71 1022.0
20260503044229 8 0.0 0.0 0.00 0.00 0.00 70 1022.0
20260503043035 8 8 0.0 0.0 0.00 0.00 0.00 69 1021.9
20260503041922 8 0.0 0.0 0.00 0.00 0.00 70 1021.9
20260503040629 8 271 0.0 1.6 0.00 0.00 0.00 69 1021.9
20260503035435 8 0.0 0.0 0.00 0.00 0.00 64 1021.7
20260503034252 9 15 1.6 3.2 0.00 0.00 0.00 64 1021.7
20260503033029 8 19 1.6 1.6 0.00 0.00 0.00 66 1021.6
20260503031837 8 0.0 0.0 0.00 0.00 0.00 67 1021.6
20260503030624 8 0.0 0.0 0.00 0.00 0.00 66 1021.7
20260503025431 8 0.0 0.0 0.00 0.00 0.00 63 1021.6
20260503024228 8 29 1.6 4.8 0.00 0.00 0.00 64 1021.5
20260503023036 8 0.0 0.0 0.00 0.00 0.00 64 1021.5
20260503021903 8 0.0 0.0 0.00 0.00 0.00 65 1021.4
20260503020630 8 0.0 0.0 0.00 0.00 0.00 65 1021.4
20260503015437 8 0.0 0.0 0.00 0.00 0.00 65 1021.6
20260503014224 8 0.0 0.0 0.00 0.00 0.00 63 1021.5
20260503013051 8 0.0 0.0 0.00 0.00 0.00 62 1021.4
20260503011839 8 0.0 0.0 0.00 0.00 0.00 62 1021.5
20260503010646 9 0.0 0.0 0.00 0.00 0.00 61 1021.5
20260503005453 9 0.0 0.0 0.00 0.00 0.00 62 1021.6
20260503004300 8 0.0 0.0 0.00 0.00 0.00 62 1021.5
20260503003027 8 0.0 0.0 0.00 0.00 0.00 63 1021.5
20260503001855 9 0.0 0.0 0.00 0.00 0.00 60 1021.5
20260503000622 9 0.0 0.0 0.00 0.00 0.00 59 1021.6
20260502235430 10 0.0 0.0 0.00 0.00 0.00 59 1021.6
20260502234258 10 0.0 0.0 0.00 0.00 0.00 59 1021.6
20260502233035 10 0.0 0.0 0.00 0.00 0.00 59 1021.7
20260502231832 10 282 1.6 3.2 0.00 0.00 0.00 58 1021.7
20260502230639 11 0.0 0.0 0.00 0.00 0.00 57 1021.7
20260502225426 10 0.0 0.0 0.00 0.00 0.00 56 1021.8
20260502224234 11 0.0 0.0 0.00 0.00 0.00 55 1021.8
20260502223021 11 277 0.0 1.6 0.00 0.00 0.00 55 1021.9
20260502221848 11 305 0.0 0.0 0.00 0.00 0.00 54 1022.0
20260502220625 -17 0.0 0.0 0.00 0.00 0.00
20260502215457 12 264 3.2 3.2 0.00 0.00 0.00 53 1021.9
20260502214235 12 0.0 0.0 0.00 0.00 0.00 53 1021.8
20260502213041 12 0.0 0.0 0.00 0.00 0.00 53 1021.9
20260502211839 13 0.0 0.0 0.00 0.00 0.00 51 1021.9
20260502210636 14 0.0 0.0 0.00 0.00 0.00 49 1021.9
20260502205424 14 0.0 0.0 0.00 0.00 0.00 49 1022.0
20260502204231 14 0.0 0.0 0.00 0.00 0.00 49 1022.0
20260502203038 15 293 0.0 1.6 0.00 0.00 0.00 48 1022.1
20260502201836 16 0.0 0.0 0.00 0.00 0.00 47 1022.1
20260502200643 15 0.0 0.0 0.00 0.00 0.00 47 1022.2
20260502195451 16 259 0.0 1.6 0.00 0.00 0.00 46 1022.2
20260502194243 17 0.0 0.0 0.00 0.00 0.00 44 1022.1
20260502193028 17 315 0.0 0.0 0.00 0.00 0.00 44 1022.2
20260502191835 18 306 1.6 1.6 0.00 0.00 0.00 44 1022.1
20260502190632 18 0.0 0.0 0.00 0.00 0.00 44 1022.0
20260502185429 20 0.0 0.0 0.00 0.00 0.00 42 1021.9
20260502184257 20 0.0 0.0 0.00 0.00 0.00 41 1021.8
20260502183024 21 0.0 0.0 0.00 0.00 0.00 39 1021.8
20260502181851 21 0.0 0.0 0.00 0.00 0.00 38 1021.7
20260502180629 22 227 0.0 3.2 0.00 0.00 0.00 37 1021.6
20260502164231 23 39 3.2 4.8 0.00 0.00 0.00 28 1021.9
20260502163038 24 19 3.2 4.8 0.00 0.00 0.00 28 1022.0
20260502161835 24 49 3.2 6.4 0.00 0.00 0.00 28 1022.2
20260502160642 24 31 3.2 6.4 0.00 0.00 0.00 28 1022.3
20260502151839 25 31 3.2 4.8 0.00 0.00 0.00 27 1022.9
20260502150624 25 39 6.4 9.7 0.00 0.00 0.00 28 1023.0
20260502130621 25 18 3.2 6.4 0.00 0.00 0.00 29 1024.3
20260502123032 25 4 3.2 4.8 0.00 0.00 0.00 31 1024.7
20260502121829 23 355 1.6 3.2 0.00 0.00 0.00 31 1025.0
20260502120636 23 338 3.2 4.8 0.00 0.00 0.00 31 1025.1
20260502115434 23 32 4.8 12.9 0.00 0.00 0.00 31 1025.2
20260502114231 24 210 6.4 9.7 0.00 0.00 0.00 31 1025.4
20260502113038 24 351 3.2 6.4 0.00 0.00 0.00 31 1025.6
20260502111834 23 318 3.2 4.8 0.00 0.00 0.00 31 1025.8
20260502110642 23 16 1.6 3.2 0.00 0.00 0.00 30 1026.0
20260502105429 24 38 6.4 9.7 0.00 0.00 0.00 30 1026.1
20260502104236 25 46 6.4 9.7 0.00 0.00 0.00 29 1026.3
20260502103031 25 300 1.6 3.2 0.00 0.00 0.00 31 1026.4
20260502101837 25 26 3.2 6.4 0.00 0.00 0.00 30 1026.7
20260502100639 24 33 1.6 6.4 0.00 0.00 0.00 31 1026.8
20260502090623 23 17 3.2 4.8 0.00 0.00 0.00 32 1027.6
20260502070645 21 270 0.0 0.0 0.00 0.00 0.00 39 1028.4
20260502065501 22 0.0 0.0 0.00 0.00 0.00 41 1028.5
20260502064258 21 0.0 0.0 0.00 0.00 0.00 43 1028.5
20260502063026 20 271 1.6 1.6 0.00 0.00 0.00 46 1028.6
20260502061833 16 262 0.0 1.6 0.00 0.00 0.00 53 1028.6
20260502060701 11 313 0.0 0.0 0.00 0.00 0.00 61 1028.6
20260502055428 10 0.0 0.0 0.00 0.00 0.00 67 1028.7
20260502054234 9 0.0 0.0 0.00 0.00 0.00 71 1028.7